Temperature
26 26 26 25 24 22 23 24 25 24 23 23 23 22 21 21 20 18 18 18 19 19 19 19 19 19 19 18 18 18 18 18 18 18 18 18 18 18 18 18 18 18 18 18 18 18 18 18 18
27 26 26 25 23 22 23 24 24 24 23 23 23 22 21 20 19 18 18 19 19 19 19 19 19 19 19 19 18 18 18 18 18 18 18 18 18 18 18 18 18 18 18 18 18 18 18 18 17
27 27 26 23 23 23 24 25 25 25 24 24 23 22 21 20 19 19 19 19 19 19 19 19 19 19 19 19 19 18 18 18 18 18 18 18 18 18 18 18 18 18 18 18 18 18 18 18 17
27 27 26 24 25 26 26 25 26 25 24 23 23 22 21 20 20 19 19 19 20 19 19 19 19 19 19 19 19 18 18 18 18 18 18 18 18 18 18 18 18 18 18 18 18 18 18 17 17
28 27 24 24 26 27 27 26 26 25 24 23 22 21 20 20 20 20 20 20 20 19 19 19 19 19 19 19 19 18 18 18 18 18 18 18 18 18 18 18 18 18 18 18 18 18 18 17 17
28 25 24 24 26 27 27 26 25 24 23 22 22 21 20 20 20 20 20 20 20 20 19 19 19 19 19 19 19 18 18 18 18 18 18 18 18 18 18 18 18 18 18 18 18 18 18 17 17
27 24 25 26 26 26 27 26 25 24 23 23 22 21 20 20 20 20 20 20 20 20 20 19 19 19 19 19 19 19 18 18 18 18 18 18 18 18 18 18 18 18 18 18 18 18 18 18 17
29 25 25 26 26 26 27 27 25 24 24 23 22 21 20 20 20 20 20 20 20 20 19 19 19 19 19 19 19 19 18 18 18 18 18 18 18 18 18 18 18 18 18 18 18 18 18 18 17
30 25 25 26 26 27 27 26 26 25 24 24 23 22 21 21 20 20 20 19 19 19 19 19 19 19 19 19 19 19 18 18 18 18 18 18 18 18 18 18 18 18 18 18 18 18 18 18 18
29 25 26 27 27 27 27 26 26 25 24 23 22 22 21 21 21 20 20 20 19 19 19 19 19 19 19 19 19 19 18 18 18 18 18 18 18 18 18 18 18 18 18 18 18 18 18 18 18
28 27 28 29 29 28 27 27 26 24 23 23 22 22 21 21 21 21 20 20 20 19 19 19 19 19 19 19 19 18 18 18 18 18 18 18 18 18 18 18 18 18 18 18 18 18 18 18 18
29 30 30 29 29 29 28 27 25 24 24 23 23 22 22 21 21 21 21 20 20 19 19 19 19 19 19 19 19 19 18 18 18 18 18 18 18 18 18 18 18 18 18 18 18 18 18 18 18
30 30 31 30 30 29 28 27 25 24 24 24 23 23 22 22 21 21 21 21 20 20 19 19 19 19 19 19 19 19 19 18 18 18 18 18 18 18 18 18 18 18 18 18 18 18 18 18 18
30 30 30 30 29 29 27 26 25 24 24 24 23 23 23 22 22 21 21 21 20 20 20 19 19 19 19 19 19 19 19 18 18 18 18 18 18 18 18 18 18 18 18 18 18 18 18 18 18
31 29 28 29 29 28 27 25 25 24 24 24 23 23 23 23 22 22 22 21 21 20 20 20 20 19 19 19 19 19 19 19 19 18 18 18 18 18 18 18 18 18 18 18 18 18 18 18 18
29 27 27 28 28 28 26 24 25 25 24 24 24 23 23 23 23 22 22 21 21 21 20 20 20 19 19 19 19 19 19 19 19 19 18 18 18 18 18 18 18 18 18 18 18 18 18 18 18
26 26 27 28 28 28 26 24 25 25 25 24 24 23 23 23 23 22 22 22 21 21 21 20 20 20 19 19 19 19 19 19 19 19 19 19 19 18 18 18 18 18 18 18 18 18 18 18 18
26 27 27 27 28 28 26 25 25 25 25 24 24 24 23 23 23 23 22 22 21 21 21 20 20 20 20 19 19 19 19 19 19 19 19 19 19 19 18 18 18 18 18 18 18 18 18 18 18
27 27 27 28 28 27 26 25 25 25 25 25 24 24 23 23 23 23 22 22 21 21 21 20 20 20 20 20 19 19 19 19 19 19 19 19 19 19 18 18 18 18 18 18 18 18 18 18 18
28 27 27 28 28 27 26 25 25 25 25 25 24 24 24 23 23 22 22 22 22 21 21 21 20 20 20 20 20 19 19 19 19 19 19 19 19 19 18 18 18 18 18 18 18 18 18 18 18
28 27 27 27 27 27 26 25 24 25 26 25 25 25 24 24 23 23 22 22 22 21 21 21 21 20 20 20 20 19 19 19 19 19 19 19 19 19 19 19 18 19 18 18 18 18 18 18 18
27 29 29 28 26 24 25 23 24 24 24 25 25 25 24 24 23 23 23 22 22 22 22 21 21 21 20 20 20 20 19 19 19 19 19 19 19 19 19 19 19 19 19 18 18 18 18 18 18
28 29 29 28 25 24 24 23 23 23 23 24 24 25 25 24 24 23 23 23 23 22 22 21 21 21 21 20 20 20 20 19 19 19 19 19 19 19 19 19 19 19 19 19 18 18 18 18 18
29 27 26 23 22 24 24 23 23 22 24 24 25 25 25 24 24 24 23 23 22 22 22 21 21 21 21 20 20 20 20 19 19 19 19 19 19 19 19 18 18 18 18 18 18 18 18 18 18
27 23 23 24 22 23 24 24 23 24 25 25 25 25 25 25 24 24 23 23 23 22 22 21 21 21 20 20 20 20 20 19 19 19 19 19 19 19 19 19 18 18 18 18 18 18 18 18 18
26 23 22 23 23 23 24 24 24 25 26 27 27 26 26 25 25 24 24 24 23 23 22 22 21 21 21 20 20 20 20 19 19 19 19 19 19 19 19 18 18 18 18 18 18 18 18 17 17
27 24 22 21 23 23 23 24 25 25 25 26 26 25 25 25 25 24 24 24 23 23 23 22 21 21 21 20 20 20 19 19 19 19 18 18 18 18 18 18 18 18 18 18 18 18 17 17 17
27 25 21 22 22 23 24 24 23 24 24 24 24 25 25 25 24 24 24 24 23 23 22 22 21 21 21 20 20 20 19 19 19 19 18 18 18 18 18 18 18 18 18 18 18 17 17 17 17
27 26 22 19 20 21 23 23 25 24 24 24 24 25 25 25 25 24 24 23 23 23 22 22 21 21 21 20 20 20 19 19 19 19 18 18 18 18 18 18 17 17 17 17 17 17 17 17 17
26 25 22 22 22 20 21 22 25 24 24 24 24 25 25 25 25 24 24 23 23 22 22 22 21 21 21 20 20 19 19 19 19 18 18 18 18 18 17 17 17 17 17 17 17 17 17 17 16
Wind_Speed
5 5 3 1 5 7 9 8 10 11 8 10 13 12 12 9 7 9 4 11 12 9 11 14 16 17 17 18 18 18 18 18 19 19 19 20 20 20 20 20 19 19 19 18 18 18 18 17 17
3 3 2 4 7 8 8 10 15 15 14 15 15 16 12 10 9 10 6 10 12 11 12 14 16 17 17 17 17 17 18 18 18 18 19 19 19 19 19 19 18 18 18 17 16 16 16 16 16
3 2 3 5 6 8 9 13 17 16 13 11 8 9 7 7 10 7 9 13 12 11 12 15 17 16 17 17 16 16 17 17 17 17 18 18 18 18 18 18 17 17 16 16 15 15 14 14 14
2 3 4 6 9 9 13 15 18 16 13 11 11 9 6 7 7 12 16 15 13 9 12 16 17 16 16 16 16 16 16 16 17 17 17 17 17 17 17 16 16 15 15 14 13 13 12 12 11
3 4 6 7 11 11 14 16 15 14 8 12 13 11 8 8 17 19 16 15 13 8 11 15 16 16 16 15 15 15 15 16 16 16 16 16 16 16 15 14 14 14 13 12 12 11 10 10 9
4 5 7 8 11 11 12 16 19 19 18 15 14 12 6 12 17 17 16 13 12 10 11 14 16 16 15 15 15 14 15 15 15 15 15 15 15 15 14 13 13 12 12 11 10 9 8 7 7
4 5 6 9 12 11 11 13 16 16 15 10 10 8 6 10 14 15 14 13 11 11 10 10 13 14 15 14 14 14 14 14 13 13 13 13 13 13 12 12 11 11 10 9 8 7 6 6 5
5 6 7 7 11 10 12 11 14 16 12 14 9 8 8 11 14 15 13 11 10 9 8 9 10 11 12 12 13 13 13 13 12 12 12 12 11 11 10 10 10 9 8 7 6 5 4 3 3
5 7 6 7 9 10 15 17 11 11 13 7 6 9 14 16 17 15 12 9 8 9 7 7 8 9 10 10 11 12 12 11 11 10 10 9 8 8 7 8 8 8 7 6 4 3 2 0 1
6 7 9 8 10 12 16 17 11 9 13 12 14 14 15 16 16 15 14 12 10 10 8 6 6 7 8 9 9 8 8 9 8 7 7 7 6 6 6 6 7 6 5 4 3 2 2 2 1
7 8 8 9 11 13 14 12 9 12 11 16 20 18 16 14 13 13 12 12 11 11 9 8 7 7 7 6 8 6 6 7 6 6 7 7 6 5 5 4 4 4 4 3 3 3 4 4 3
7 7 9 9 11 13 13 10 9 9 12 16 18 18 16 14 13 12 12 11 10 10 10 8 8 7 7 7 7 7 6 5 6 7 8 8 5 5 4 4 4 4 4 3 3 3 4 5 5
7 6 8 11 13 14 14 12 11 10 15 16 16 15 14 13 11 10 11 11 10 10 9 8 7 7 6 6 5 6 6 6 7 7 8 9 6 4 5 4 5 5 5 4 3 2 3 3 3
4 6 8 12 14 13 17 13 11 12 16 15 15 13 13 13 12 11 11 9 9 10 10 8 8 7 6 4 4 5 6 6 5 6 7 8 7 6 4 3 3 3 5 4 3 3 1 1 0
5 8 6 6 10 10 14 9 11 17 17 16 14 13 12 11 12 14 13 11 11 10 9 9 8 7 6 5 5 5 6 6 5 5 6 7 7 6 5 3 2 3 4 3 2 1 0 0 0
5 6 4 1 7 8 11 8 11 16 16 14 13 13 11 10 13 14 13 11 11 10 9 8 9 7 5 4 4 4 6 6 6 6 6 6 7 7 5 3 2 3 2 1 1 0 0 0 1
4 3 4 2 3 5 7 8 11 13 15 14 12 12 11 10 11 12 13 13 11 11 10 8 7 7 5 4 3 4 4 5 6 6 6 6 6 6 5 3 2 3 2 1 1 1 1 1 1
3 2 3 5 4 5 7 8 14 14 14 14 13 12 12 13 12 13 13 12 11 11 10 8 7 6 5 3 2 1 2 2 4 5 6 7 6 6 5 3 3 2 1 1 1 1 1 1 2
4 2 3 4 4 5 7 10 13 13 12 12 11 12 13 12 11 12 12 12 11 10 9 9 8 7 5 3 2 2 2 2 2 4 7 8 7 6 5 2 2 2 2 2 2 1 1 1 1
3 3 2 1 4 6 8 7 10 12 14 15 15 14 13 12 11 12 11 11 11 11 10 9 9 7 6 4 3 3 3 3 3 3 5 7 7 6 5 4 3 3 2 1 1 1 1 1 1
3 6 5 4 1 4 8 2 4 7 7 9 13 14 14 16 16 15 13 12 11 11 11 10 9 8 7 5 3 1 1 1 0 1 2 3 5 6 5 5 4 3 3 3 3 2 2 1 1
4 5 7 6 5 2 5 4 6 6 6 9 10 13 14 15 14 14 14 13 13 12 11 9 9 8 7 5 4 4 3 2 3 2 2 2 3 4 5 5 5 4 3 3 3 3 2 2 2
5 3 4 6 5 2 1 4 6 3 7 10 12 14 15 15 16 17 16 15 13 11 10 9 8 8 6 6 5 4 3 3 2 1 2 2 1 3 4 4 4 4 3 3 3 2 2 3 3
2 5 7 6 5 0 5 5 6 7 13 12 13 14 14 15 16 15 13 11 10 10 9 8 8 8 7 6 5 5 4 3 2 2 2 2 1 2 2 3 4 4 3 3 3 3 2 2 2
5 6 4 5 3 5 4 4 8 10 13 15 16 16 15 14 14 14 14 13 12 12 11 9 8 8 7 7 6 5 5 4 4 3 3 3 2 2 3 2 2 2 3 3 2 2 2 2 2
4 10 8 5 5 4 2 3 7 6 9 10 12 13 13 14 14 15 15 14 13 13 11 9 8 7 8 7 6 5 4 3 3 3 3 3 3 3 2 2 2 2 2 2 2 2 2 1 1
5 5 9 8 3 1 3 3 5 3 5 6 9 10 12 13 14 14 14 12 12 11 11 10 8 7 7 7 6 4 4 4 3 3 3 2 2 1 1 2 2 1 1 1 2 1 1 1 1
8 8 6 5 4 1 3 2 4 4 6 7 9 10 11 11 12 12 11 11 10 10 9 9 9 9 8 7 6 5 3 3 3 2 2 1 1 1 2 2 2 2 1 1 1 1 1 1 0
3 4 6 5 6 6 2 6 7 10 9 9 9 11 12 12 13 12 10 10 10 9 9 9 9 8 7 7 5 4 3 3 3 2 2 2 2 2 2 2 2 2 2 1 2 1 1 1 1
8 7 8 6 3 5 5 7 6 7 8 9 10 9 10 10 9 10 11 10 10 10 9 9 8 8 7 6 5 5 4 4 3 3 2 3 3 3 3 3 3 3 2 2 2 2 1 2 1
Wind_Direction
201 188 167 86 58 69 84 87 92 80 65 67 76 80 78 65 89 119 150 128 125 118 112 107 104 102 100 98 97 95 95 96 96 96 97 98 98 98 98 99 99 99 99 99 99 100 100 102 103
186 178 113 57 83 87 83 96 90 94 112 103 84 82 77 73 89 115 124 126 125 120 115 112 109 105 103 101 99 98 98 99 98 98 99 100 101 100 100 100 100 100 101 100 99 101 101 101 102
190 176 89 73 95 111 111 107 106 105 104 95 90 69 70 98 111 124 132 127 117 113 116 116 112 109 106 104 102 101 100 100 100 100 101 103 102 101 101 100 101 101 102 103 103 103 102 103 103
124 67 54 86 104 114 118 119 116 107 85 80 92 77 71 99 109 129 130 123 117 114 121 119 115 113 112 109 107 105 104 104 103 102 102 103 103 103 102 102 102 103 104 105 104 104 103 104 102
76 75 70 85 96 102 114 118 111 100 88 93 95 99 89 94 117 129 130 129 126 122 123 121 120 118 115 114 113 111 109 107 106 105 105 105 106 106 106 106 106 107 107 107 106 104 103 102 98
62 73 82 98 104 104 110 112 104 100 107 105 104 104 101 125 128 135 135 134 133 132 127 127 126 124 121 118 116 115 114 112 112 110 110 110 110 110 111 110 110 111 112 111 108 106 103 98 95
116 101 109 113 111 113 121 118 116 121 122 120 121 103 116 133 137 137 135 134 133 133 130 128 130 130 127 125 124 122 121 119 117 116 116 116 116 115 115 115 117 117 117 118 114 110 105 95 91
140 103 95 104 114 120 128 116 125 127 118 131 125 121 144 149 137 133 130 130 132 133 133 134 136 135 135 133 132 130 128 125 124 125 123 122 121 121 121 122 125 126 126 126 125 122 113 96 87
108 92 122 140 127 127 121 110 113 111 122 127 107 128 144 140 133 131 129 129 139 141 143 144 143 144 145 143 142 139 136 136 135 135 134 130 127 127 128 134 137 137 139 141 148 153 162 132 85
108 129 170 161 139 133 125 121 121 113 111 107 111 124 136 137 137 139 146 150 154 155 158 156 151 160 162 155 147 148 148 149 148 148 147 146 149 152 149 152 152 154 158 162 184 221 262 292 328
119 143 153 136 134 128 125 123 112 122 129 141 142 146 147 144 146 147 152 155 157 159 160 162 164 170 174 161 157 164 167 164 166 168 168 164 159 164 160 161 172 184 192 213 239 262 273 281 286
100 122 128 133 131 125 127 121 111 125 148 150 147 150 150 153 156 154 153 152 148 149 156 160 161 163 172 165 169 176 176 175 176 176 171 161 156 158 168 175 195 213 218 225 244 264 271 272 268
94 113 116 120 119 122 118 119 116 126 138 142 145 149 153 158 157 155 152 149 147 147 151 155 152 154 160 159 174 173 175 176 178 175 173 168 163 166 174 183 191 206 216 213 221 247 265 260 258
128 114 115 120 117 119 119 118 111 138 144 150 154 158 161 161 154 151 152 150 153 155 156 157 153 155 153 151 154 160 167 170 164 169 172 170 167 165 166 174 190 209 214 208 211 219 232 261 316
94 95 83 115 118 128 114 103 137 152 154 158 163 166 166 163 156 160 162 159 159 159 156 157 158 158 155 152 156 152 160 160 159 168 165 167 171 165 159 156 166 209 218 218 204 216 315 278 285
56 77 104 214 132 144 116 143 163 160 158 163 168 169 167 166 164 166 163 160 159 157 155 162 164 162 163 157 150 149 155 161 170 173 172 180 181 173 160 157 185 203 191 176 165 141 355 313 291
36 119 152 214 176 143 118 149 165 169 166 168 172 172 166 161 161 164 165 164 161 161 162 166 161 164 169 165 155 157 164 172 178 175 181 191 194 186 172 180 200 197 169 170 216 156 177 208 253
227 173 165 190 202 143 126 151 163 173 172 175 175 171 167 166 168 167 167 163 160 163 164 164 163 169 166 158 138 132 162 189 185 186 198 198 197 189 180 190 208 179 146 174 205 197 198 199 224
183 160 181 205 181 136 134 148 167 176 175 175 178 176 172 172 168 165 164 161 159 163 164 168 168 175 167 159 161 166 196 212 213 203 206 203 199 193 185 191 194 175 168 193 199 192 207 238 141
192 176 226 325 157 142 139 155 178 181 185 182 181 181 176 166 163 166 166 164 166 170 170 168 171 176 179 179 178 183 189 209 211 214 213 209 204 198 195 188 192 193 185 207 210 177 168 249 137
239 185 189 180 110 81 106 69 206 193 186 187 182 179 177 175 174 173 173 174 172 175 175 174 173 176 184 181 164 163 104 2 288 240 230 223 209 201 196 191 187 188 184 207 218 196 174 215 255
243 218 167 154 125 204 141 175 247 200 198 196 187 181 182 180 176 177 178 179 180 182 177 169 170 174 179 172 166 170 178 202 220 213 214 235 203 197 200 197 193 197 198 205 217 207 193 182 231
217 210 146 151 139 93 58 142 257 200 205 209 197 189 187 181 179 182 185 184 182 178 175 173 170 175 176 174 174 177 195 211 217 193 200 218 222 214 209 203 197 201 206 212 214 206 199 193 206
153 42 37 60 82 126 223 159 241 209 206 201 197 193 188 183 182 183 183 176 175 173 173 173 176 181 179 178 178 183 195 199 178 191 209 231 240 240 228 210 204 205 208 212 214 210 200 200 193
84 83 34 7 17 247 238 164 235 224 198 193 188 191 188 183 181 180 180 179 177 176 176 178 179 185 183 182 188 190 192 184 186 195 200 214 229 234 232 214 202 204 202 197 190 187 192 183 174
155 137 155 184 210 271 326 217 254 225 188 180 180 182 179 178 182 183 184 182 180 176 174 175 181 188 184 186 195 190 184 184 198 201 197 207 214 219 219 189 178 187 191 193 177 185 200 167 185
149 166 168 143 163 82 292 298 334 87 138 159 163 162 172 178 179 180 179 177 173 168 171 175 179 185 183 186 186 187 184 182 190 196 188 187 196 182 136 142 141 144 144 160 157 163 188 155 176
160 154 96 114 144 216 299 268 218 200 171 174 167 165 170 173 173 174 175 173 169 164 161 159 175 181 177 180 183 184 186 191 193 179 175 156 137 107 95 96 99 96 98 104 114 133 162 132 167
156 129 118 126 148 149 210 266 225 198 181 169 171 167 168 168 169 165 163 164 159 152 153 156 164 166 170 173 169 168 170 173 160 138 127 117 110 109 104 112 111 100 94 87 98 93 101 124 119
169 175 148 152 206 156 160 259 260 180 169 159 162 162 159 156 155 152 153 152 151 152 152 155 160 162 165 165 156 156 144 137 133 126 121 116 111 108 110 101 98 93 83 71 77 76 62 83 76
Height
1503 1502 1503 1504 1508 1520 1525 1521 1515 1515 1518 1520 1519 1520 1524 1528 1534 1544 1543 1541 1542 1541 1542 1542 1542 1542 1542 1542 1543 1543 1543 1543 1543 1543 1543 1544 1544 1544 1545 1546 1547 1547 1548 1549 1549 1550 1551 1552 1553
1503 1503 1505 1506 1517 1534 1532 1521 1519 1519 1522 1522 1523 1525 1527 1533 1536 1540 1541 1543 1543 1543 1544 1544 1545 1545 1545 1545 1545 1545 1546 1546 1546 1546 1547 1547 1547 1548 1548 1549 1550 1550 1551 1552 1552 1554 1555 1555 1556
1504 1504 1507 1511 1522 1531 1531 1522 1520 1522 1523 1521 1525 1528 1532 1537 1539 1541 1543 1544 1544 1545 1546 1546 1547 1547 1547 1548 1548 1548 1548 1549 1549 1549 1549 1550 1550 1551 1551 1552 1552 1553 1554 1555 1556 1557 1558 1558 1559
1505 1506 1508 1516 1523 1518 1518 1520 1520 1522 1525 1525 1526 1532 1537 1540 1541 1543 1544 1545 1546 1547 1548 1548 1549 1549 1550 1550 1550 1551 1551 1551 1552 1552 1552 1552 1553 1553 1554 1555 1555 1556 1557 1558 1558 1559 1560 1561 1562
1506 1508 1515 1523 1521 1517 1516 1518 1520 1522 1526 1530 1529 1535 1541 1543 1543 1545 1546 1547 1548 1549 1550 1550 1551 1552 1552 1552 1553 1553 1553 1554 1554 1554 1555 1555 1556 1556 1557 1557 1558 1559 1560 1560 1561 1562 1563 1564 1565
1508 1510 1525 1530 1523 1519 1519 1520 1522 1526 1531 1533 1534 1537 1544 1545 1545 1547 1549 1549 1550 1551 1552 1552 1553 1554 1554 1555 1555 1555 1556 1556 1556 1557 1557 1558 1558 1559 1559 1560 1561 1561 1562 1563 1564 1564 1565 1566 1567
1508 1514 1524 1525 1524 1523 1523 1522 1523 1528 1532 1535 1535 1539 1545 1548 1548 1549 1551 1551 1552 1553 1554 1554 1555 1556 1556 1557 1557 1557 1558 1558 1559 1559 1560 1561 1561 1561 1562 1563 1563 1564 1564 1565 1566 1567 1568 1568 1569
1506 1512 1522 1524 1525 1525 1522 1523 1526 1528 1532 1537 1537 1539 1545 1548 1549 1551 1552 1554 1554 1555 1556 1556 1557 1558 1558 1559 1559 1560 1560 1561 1561 1562 1562 1563 1564 1564 1564 1565 1566 1566 1567 1567 1568 1569 1570 1570 1571
1505 1516 1528 1524 1523 1523 1521 1524 1529 1531 1533 1536 1537 1539 1543 1547 1550 1552 1553 1555 1556 1557 1558 1558 1559 1560 1560 1561 1561 1562 1562 1563 1563 1564 1565 1565 1566 1566 1567 1567 1568 1568 1569 1570 1570 1571 1571 1572 1572
1504 1520 1520 1513 1514 1518 1521 1524 1528 1533 1535 1538 1541 1544 1546 1548 1550 1552 1553 1555 1556 1558 1559 1560 1561 1562 1562 1563 1563 1564 1564 1565 1565 1566 1566 1567 1568 1568 1569 1569 1570 1570 1571 1571 1572 1572 1573 1573 1573
1503 1511 1509 1511 1513 1517 1521 1525 1528 1532 1537 1538 1539 1544 1547 1549 1551 1552 1554 1555 1557 1558 1560 1561 1562 1563 1563 1564 1565 1565 1566 1566 1567 1568 1568 1568 1569 1570 1570 1571 1571 1572 1572 1573 1573 1573 1574 1574 1574
1503 1505 1506 1511 1514 1517 1521 1526 1530 1532 1536 1538 1540 1543 1546 1549 1551 1552 1554 1556 1558 1559 1560 1561 1562 1563 1564 1565 1566 1567 1567 1568 1568 1569 1569 1570 1570 1571 1571 1572 1572 1573 1573 1574 1574 1574 1575 1575 1575
1505 1507 1508 1510 1513 1517 1521 1526 1530 1535 1537 1540 1542 1545 1547 1549 1551 1553 1555 1557 1558 1559 1561 1562 1563 1564 1565 1566 1567 1567 1568 1569 1569 1570 1570 1571 1571 1572 1572 1573 1573 1573 1574 1574 1575 1574 1575 1575 1575
1507 1507 1510 1512 1515 1519 1523 1528 1531 1538 1539 1541 1543 1546 1547 1549 1551 1553 1555 1557 1558 1559 1561 1562 1564 1565 1566 1567 1567 1568 1569 1570 1570 1571 1571 1572 1572 1573 1573 1573 1574 1574 1574 1574 1574 1575 1575 1575 1575
1507 1511 1515 1515 1516 1522 1524 1534 1534 1536 1539 1542 1544 1546 1548 1550 1551 1552 1554 1556 1558 1559 1561 1562 1563 1565 1566 1567 1568 1568 1569 1570 1570 1571 1572 1572 1573 1573 1573 1573 1574 1574 1574 1574 1574 1574 1574 1574 1574
1510 1518 1527 1520 1517 1521 1527 1544 1537 1537 1539 1541 1544 1546 1548 1549 1551 1552 1554 1556 1558 1559 1561 1562 1563 1565 1566 1567 1567 1568 1569 1569 1570 1571 1571 1572 1572 1573 1573 1573 1573 1573 1573 1573 1573 1573 1573 1574 1574
1522 1531 1531 1525 1517 1519 1526 1538 1536 1537 1538 1541 1543 1545 1547 1548 1550 1552 1554 1556 1557 1559 1560 1562 1563 1564 1565 1566 1567 1568 1569 1569 1570 1571 1571 1571 1572 1572 1572 1573 1573 1573 1573 1573 1573 1572 1572 1572 1573
1531 1530 1529 1528 1519 1520 1527 1533 1534 1536 1537 1540 1541 1543 1545 1547 1549 1551 1553 1555 1557 1559 1560 1561 1562 1564 1565 1566 1566 1567 1568 1569 1569 1570 1570 1571 1571 1571 1571 1572 1572 1572 1572 1572 1571 1571 1571 1571 1571
1518 1524 1528 1523 1517 1521 1528 1532 1533 1535 1537 1539 1541 1542 1543 1545 1548 1551 1553 1555 1556 1558 1559 1560 1561 1563 1564 1565 1565 1566 1567 1568 1568 1569 1569 1570 1570 1570 1570 1570 1570 1570 1570 1570 1570 1570 1570 1569 1569
1516 1524 1526 1521 1516 1521 1529 1532 1530 1531 1532 1534 1537 1540 1542 1544 1547 1549 1551 1553 1555 1556 1558 1559 1560 1562 1563 1564 1565 1566 1566 1567 1568 1568 1568 1569 1569 1569 1569 1569 1569 1569 1569 1568 1568 1568 1568 1568 1568
1516 1522 1523 1525 1521 1521 1530 1540 1535 1531 1532 1534 1534 1537 1539 1541 1543 1546 1549 1551 1553 1555 1556 1557 1559 1561 1562 1563 1564 1565 1566 1566 1567 1567 1567 1567 1567 1567 1567 1567 1567 1567 1567 1566 1566 1566 1566 1566 1566
1521 1510 1513 1519 1531 1540 1535 1558 1541 1534 1533 1532 1533 1534 1536 1539 1541 1544 1546 1548 1550 1552 1554 1556 1558 1559 1561 1562 1563 1564 1564 1564 1565 1566 1566 1566 1566 1566 1566 1565 1565 1565 1565 1564 1564 1564 1564 1564 1563
1510 1505 1510 1517 1529 1540 1539 1553 1546 1534 1536 1531 1530 1531 1533 1535 1538 1540 1543 1545 1548 1550 1553 1555 1556 1558 1559 1560 1562 1562 1563 1564 1564 1564 1564 1564 1564 1564 1564 1563 1563 1563 1562 1562 1562 1562 1561 1561 1561
1502 1509 1516 1527 1539 1555 1542 1550 1549 1534 1527 1524 1525 1527 1529 1532 1535 1538 1541 1544 1546 1549 1551 1553 1554 1556 1558 1559 1560 1561 1561 1562 1562 1562 1562 1562 1562 1561 1561 1561 1561 1560 1560 1560 1560 1560 1559 1559 1559
1506 1530 1552 1555 1565 1559 1538 1542 1540 1518 1514 1515 1518 1522 1525 1528 1532 1536 1539 1541 1543 1546 1548 1550 1552 1554 1556 1557 1558 1559 1560 1560 1560 1560 1560 1560 1559 1559 1559 1559 1558 1558 1558 1558 1558 1557 1557 1557 1556
1511 1527 1554 1565 1566 1557 1540 1541 1527 1509 1509 1511 1514 1517 1521 1525 1528 1532 1534 1537 1540 1543 1546 1549 1551 1552 1554 1555 1556 1557 1558 1558 1558 1558 1558 1558 1557 1557 1557 1556 1556 1556 1556 1556 1556 1555 1555 1554 1554
1510 1522 1525 1545 1549 1556 1550 1534 1520 1510 1512 1512 1514 1517 1520 1522 1525 1528 1532 1535 1538 1541 1544 1546 1549 1551 1552 1553 1555 1555 1556 1556 1556 1556 1556 1555 1555 1555 1555 1554 1554 1554 1554 1554 1554 1553 1552 1552 1552
1500 1509 1530 1544 1560 1566 1553 1542 1536 1520 1517 1514 1514 1516 1518 1521 1524 1527 1531 1534 1537 1539 1542 1545 1547 1548 1550 1551 1552 1553 1554 1554 1554 1554 1554 1553 1553 1553 1553 1553 1552 1552 1552 1551 1551 1551 1551 1550 1550
1504 1511 1525 1541 1547 1561 1563 1549 1515 1514 1511 1512 1513 1514 1516 1519 1522 1525 1529 1532 1535 1538 1540 1542 1544 1546 1548 1549 1550 1551 1551 1552 1552 1552 1552 1552 1552 1552 1552 1551 1550 1550 1550 1549 1549 1549 1548 1548 1548
1497 1505 1521 1539 1544 1549 1555 1545 1505 1507 1507 1509 1512 1514 1515 1518 1521 1524 1528 1531 1534 1537 1539 1541 1543 1544 1546 1548 1549 1549 1550 1551 1550 1550 1550 1550 1550 1550 1550 1550 1549 1549 1548 1548 1547 1546 1546 1546 1545